KA1WBH Weather Reports


time (UTC)temp
F
wind
direction
speed
knots
gust
knots
rain 1hr
in
rain 24hr
in
rain mn
in
humidity
%
barometer
mb
20210723150854 77 131 2.6 4.3 0.00 0.00 0.00 69 1018.3
20210723145854 77 104 3.5 5.2 0.00 0.00 0.00 68 1018.3
20210723144854 77 141 0.0 5.2 0.00 0.00 0.00 68 1018.3
20210723143854 77 102 0.9 5.2 0.00 0.00 0.00 68 1018.3
20210723142854 77 90 0.0 2.6 0.00 0.00 0.00 65 1018.4
20210723141854 77 93 0.0 0.0 0.00 0.00 0.00 67 1018.2
20210723140854 76 93 0.0 2.6 0.00 0.00 0.00 67 1018.3
20210723135854 76 92 0.0 2.6 0.00 0.00 0.00 67 1018.3
20210723134854 76 89 1.7 3.5 0.00 0.00 0.00 71 1018.3
20210723133854 75 63 2.6 3.5 0.00 0.00 0.00 70 1018.3
20210723132854 74 359 0.0 4.3 0.00 0.00 0.00 72 1018.4
20210723131854 73 352 0.0 2.6 0.00 0.00 0.00 72 1018.5
20210723130854 73 352 0.0 4.3 0.00 0.00 0.00 74 1018.5
20210723125854 73 354 2.6 4.3 0.00 0.00 0.00 74 1018.5
20210723124854 72 353 3.5 6.1 0.00 0.00 0.00 74 1018.5
20210723123854 73 349 3.5 8.7 0.00 0.00 0.00 75 1018.5
20210723122854 72 349 3.5 6.1 0.00 0.00 0.00 77 1018.4
20210723121854 71 10 2.6 6.1 0.00 0.00 0.00 77 1018.4
20210723120854 71 354 3.5 8.7 0.00 0.00 0.00 77 1018.3
20210723115853 71 358 0.0 8.7 0.00 0.00 0.00 77 1018.2
20210723114853 71 14 3.5 7.8 0.00 0.00 0.00 79 1018.2
20210723113854 70 341 5.2 7.8 0.00 0.00 0.00 80 1018.1
20210723112854 69 345 2.6 6.1 0.00 0.00 0.00 82 1018.1
20210723111854 69 340 2.6 8.7 0.00 0.00 0.00 82 1018.0
20210723110854 69 352 0.9 6.1 0.00 0.00 0.00 82 1017.9
20210723105854 69 347 0.9 5.2 0.00 0.00 0.00 82 1017.8
20210723104854 68 328 1.7 3.5 0.00 0.00 0.00 84 1017.7
20210723103854 68 337 0.0 3.5 0.00 0.00 0.00 84 1017.9
20210723102854 68 352 0.0 6.1 0.00 0.00 0.00 84 1017.7
20210723101853 68 345 0.0 0.0 0.00 0.00 0.00 84 1017.6
20210723100854 68 329 0.0 0.0 0.00 0.00 0.00 85 1017.6
20210723095854 68 329 0.0 0.0 0.00 0.00 0.00 84 1017.5
20210723094854 68 329 0.0 2.6 0.00 0.00 0.00 84 1017.4
20210723093854 68 343 0.0 4.3 0.00 0.00 0.00 84 1017.3
20210723092854 68 346 0.0 2.6 0.00 0.00 0.00 83 1017.2
20210723091853 69 342 0.0 4.3 0.00 0.00 0.00 83 1017.0
20210723090853 69 1 0.0 0.0 0.00 0.00 0.00 84 1016.9
20210723085853 69 1 0.0 0.0 0.00 0.00 0.00 84 1016.7
20210723084854 69 1 0.0 0.0 0.00 0.00 0.00 84 1016.7
20210723083854 69 360 0.0 0.0 0.00 0.00 0.00 84 1016.6
20210723082854 69 2 0.0 0.0 0.00 0.00 0.00 84 1016.6
20210723081853 70 4 0.0 3.5 0.00 0.00 0.00 85 1016.5
20210723080854 70 9 0.0 4.3 0.00 0.00 0.00 85 1016.6
20210723075853 70 2 0.0 3.5 0.00 0.00 0.00 85 1016.5
20210723074853 70 328 0.0 4.3 0.00 0.00 0.00 85 1016.7
20210723073853 70 312 0.0 2.6 0.00 0.00 0.00 87 1016.7
20210723072853 70 312 0.0 2.6 0.00 0.00 0.00 87 1016.8
20210723071853 70 312 0.0 2.6 0.00 0.00 0.00 87 1016.8
20210723070853 71 312 0.0 3.5 0.00 0.00 0.00 87 1016.8
20210723065853 71 285 0.0 0.0 0.00 0.00 0.00 87 1016.9
20210723064853 71 286 0.0 0.9 0.00 0.00 0.00 88 1016.9
20210723063853 71 284 0.0 0.9 0.00 0.00 0.00 88 1017.0
20210723062853 71 284 0.0 0.9 0.00 0.00 0.00 87 1017.1
20210723061853 71 282 0.0 2.6 0.00 0.00 0.00 87 1017.0
20210723060853 71 300 0.0 0.0 0.00 0.00 0.00 87 1017.2
20210723055853 71 300 0.0 2.6 0.00 0.00 0.00 87 1017.0
20210723054853 71 301 0.0 0.0 0.00 0.00 0.00 87 1017.1
20210723053853 71 302 0.0 1.7 0.00 0.00 0.00 87 1017.1
20210723052853 71 300 0.0 4.3 0.00 0.00 0.00 87 1017.2
20210723051853 72 307 0.0 2.6 0.00 0.00 0.00 87 1017.2
20210723050853 72 300 0.0 2.6 0.00 0.00 0.00 87 1017.3
20210723045853 72 278 0.0 2.6 0.00 0.00 0.00 87 1017.3
20210723044853 72 282 2.6 5.2 0.00 0.00 0.00 87 1017.3
20210723043853 72 297 0.0 6.1 0.00 0.00 0.00 87 1017.4
20210723042853 72 269 0.0 7.8 0.00 0.00 0.00 87 1017.4
20210723041853 71 281 0.0 4.3 0.00 0.00 0.00 88 1017.4
20210723040853 71 262 0.9 3.5 0.00 0.00 0.00 88 1017.5
20210723035853 71 258 1.7 5.2 0.00 0.00 0.00 88 1017.4
20210723034853 71 267 0.9 4.3 0.00 0.00 0.00 87 1017.6
20210723033853 71 43 0.9 6.1 0.00 0.00 0.00 88 1017.6
20210723032853 71 254 0.0 5.2 0.00 0.00 0.00 88 1017.6
20210723031853 71 256 0.0 6.1 0.00 0.00 0.00 88 1017.7
20210723030853 72 261 0.0 6.1 0.00 0.00 0.00 88 1017.8
20210723025853 72 43 0.9 6.1 0.00 0.00 0.00 88 1017.8
20210723024853 72 254 0.0 5.2 0.00 0.00 0.00 89 1017.9
20210723023853 72 242 0.0 7.0 0.00 0.00 0.00 89 1017.9
20210723022853 72 253 0.0 14.8 0.00 0.00 0.00 89 1017.9
20210723021853 72 43 1.7 9.6 0.00 0.00 0.00 89 1017.8
20210723020853 72 232 2.6 10.4 0.00 0.00 0.00 89 1017.9
20210723015853 72 227 0.9 11.3 0.00 0.00 0.00 89 1017.9
20210723014853 72 225 2.6 13.0 0.00 0.00 0.00 88 1017.7
20210723013853 72 258 3.5 13.9 0.00 0.00 0.00 88 1017.5
20210723012853 72 233 0.0 11.3 0.00 0.00 0.00 88 1017.4
20210723011853 72 240 0.9 13.9 0.00 0.00 0.00 89 1017.3
20210723010853 72 220 3.5 12.2 0.00 0.00 0.00 88 1017.2
20210723005853 72 216 5.2 11.3 0.00 0.00 0.00 88 1017.2
20210723004853 72 226 0.0 11.3 0.00 0.00 0.00 87 1017.2
20210723003853 72 207 3.5 12.2 0.00 0.00 0.00 87 1017.2
20210723002853 72 224 3.5 9.6 0.00 0.00 0.00 87 1017.2
20210723001853 72 233 5.2 8.7 0.00 0.00 0.00 86 1017.1
20210723000853 72 210 0.0 8.7 0.00 0.00 0.00 85 1017.1
20210722235853 72 195 1.7 9.6 0.00 0.00 0.00 83 1017.2
20210722234853 73 191 3.5 7.8 0.00 0.00 0.00 81 1017.1
20210722233853 73 199 0.0 7.0 0.00 0.00 0.00 78 1017.1
20210722232853 73 199 0.9 8.7 0.00 0.00 0.00 76 1017.2
20210722231854 73 225 3.5 11.3 0.00 0.00 0.00 73 1017.0
20210722230853 73 198 0.9 8.7 0.00 0.00 0.00 79 1017.0
20210722225853 73 223 0.0 7.8 0.00 0.00 0.00 81 1016.9
20210722224853 73 43 3.5 11.3 0.00 0.00 0.00 79 1017.0
20210722223853 73 266 3.5 16.5 0.00 0.00 0.00 79 1016.9
20210722222853 73 261 8.7 17.4 0.00 0.00 0.00 77 1016.7
20210722221853 73 259 1.7 12.2 0.00 0.00 0.00 78 1016.6
20210722220853 73 259 1.7 13.0 0.00 0.00 0.00 77 1016.6
20210722215853 73 234 1.7 12.2 0.00 0.00 0.00 76 1016.5
20210722214853 73 233 7.8 11.3 0.00 0.00 0.00 77 1016.5
20210722213853 73 217 3.5 14.8 0.00 0.00 0.00 79 1016.7
20210722212853 73 236 1.7 13.9 0.00 0.00 0.00 78 1016.6
20210722211853 74 235 3.5 17.4 0.00 0.00 0.00 78 1016.6
20210722210853 74 221 13.0 18.2 0.00 0.00 0.00 78 1016.6
20210722205853 74 204 4.3 11.3 0.00 0.00 0.00 76 1016.5
20210722204853 75 252 5.2 14.8 0.00 0.00 0.00 76 1016.5
20210722203853 76 223 4.3 9.6 0.00 0.00 0.00 74 1016.4
20210722202853 76 246 0.0 9.6 0.00 0.00 0.00 70 1016.5
20210722201853 76 198 0.9 6.1 0.00 0.00 0.00 69 1016.4
20210722200853 76 183 1.7 8.7 0.00 0.00 0.00 70 1016.4
20210722195853 76 203 0.0 8.7 0.00 0.00 0.00 69 1016.4
20210722194853 76 205 0.0 10.4 0.00 0.00 0.00 70 1016.3
20210722193853 76 208 0.0 9.6 0.00 0.00 0.00 73 1016.3
20210722192853 76 187 0.0 10.4 0.00 0.00 0.00 71 1016.4
20210722191853 76 216 0.0 8.7 0.00 0.00 0.00 72 1016.5
20210722190853 76 214 2.6 9.6 0.00 0.00 0.00 72 1016.3
20210722185853 77 202 0.0 10.4 0.00 0.00 0.00 69 1016.2
20210722184853 78 233 1.7 7.8 0.00 0.00 0.00 69 1016.4
20210722183853 79 43 7.8 10.4 0.00 0.00 0.00 63 1016.4
20210722182853 78 61 0.0 4.3 0.00 0.00 0.00 54 1016.3
20210722181853 78 356 2.6 7.8 0.00 0.00 0.00 56 1016.1
20210722180852 78 345 5.2 7.8 0.00 0.00 0.00 54 1016.2
20210722175853 78 344 2.6 8.7 0.00 0.00 0.00 55 1016.2
20210722174853 78 9 4.3 9.6 0.00 0.00 0.00 56 1016.1
20210722173853 77 335 3.5 5.2 0.00 0.00 0.00 60 1016.1
20210722172853 77 12 1.7 9.6 0.00 0.00 0.00 62 1016.1
20210722171853 77 344 0.0 8.7 0.00 0.00 0.00 61 1016.1
20210722170853 78 281 0.0 8.7 0.00 0.00 0.00 61 1016.2
20210722165852 77 331 4.3 9.6 0.00 0.00 0.00 60 1016.2
20210722164853 77 12 5.2 7.8 0.00 0.00 0.00 61 1016.2
20210722163852 77 333 2.6 8.7 0.00 0.00 0.00 62 1016.2
20210722162852 76 12 0.9 7.8 0.00 0.00 0.00 63 1016.2
20210722161852 75 19 1.7 9.6 0.00 0.00 0.00 64 1016.1
20210722160852 76 7 4.3 11.3 0.00 0.00 0.00 62 1016.1
20210722155852 76 352 0.9 7.8 0.00 0.00 0.00 67 1016.1
20210722154852 75 335 4.3 8.7 0.00 0.00 0.00 66 1016.1
20210722153852 75 345 0.0 8.7 0.00 0.00 0.00 69 1016.1
20210722152852 74 348 6.1 7.8 0.00 0.00 0.00 68 1016.0
20210722151852 74 358 2.6 7.8 0.00 0.00 0.00 69 1016.0